Location: Star Camp Observatory
(34.2910°N, 116.3827°W)
Time: 08:59:59
(UTC-08:00)

Envisat - Pass Details

Date: 20 November 2019
Orbit: 764 x 766 km, 98.1° (Epoch: 06 December)

Event Time Altitude Azimuth Distance (km) Brightness Sun altitude
Rises 18:35:59 0° 192° (SSW) 3,214 6.5 -24.1°
Reaches altitude 10° 18:38:33 10° 203° (SSW) 2,292 5.8 -24.6°
Maximum altitude 18:42:55 29° 263° (W) 1,361 4.9 -25.5°
Drops below altitude 10° 18:47:20 10° 324° (NW) 2,304 5.8 -26.4°
Sets 18:49:55 0° 335° (NNW) 3,234 6.5 -26.9°
